Regional Weather Roundup
Issued by NWS Cleveland, OH

Home | Current Version | Previous Version | Graphics & Text | Print | Product List | Glossary On
Versions: 1 2 3 4 5 6 7 8 9 10 11 12 13 14 15 16 17 18 19 20 21 22 23 24 25 26 27 28 29 30 31 32 33 34 35 36 37 38 39 40 41 42 43 44 45 46 47 48 49 50
000
ASUS41 KCLE 250202
RWRCLE
OHIO REGIONAL WEATHER ROUNDUP
NATIONAL WEATHER SERVICE CLEVELAND, OH
1000 PM EDT SUN JUL 24 2016

NOTE: "FAIR" INDICATES FEW OR NO CLOUDS BELOW 12,000 FEET WITH NO
SIGNIFICANT WEATHER AND/OR OBSTRUCTIONS TO VISIBILITY.

OHZ001>008-015>018-024>027-034-035-043-044-250300-
   NORTHWEST OHIO

CITY           SKY/WX    TMP DP  RH WIND       PRES   REMARKS
DEFIANCE       CLEAR     83  74  74 S6        29.92R
FINDLAY        CLEAR     81  71  71 SE5       29.94R
TOLEDO EXPRESS CLEAR     78  76  93 S5        29.92R
TOLEDO EXEC    CLEAR     78  75  90 SE5       29.93R
LIMA           CLEAR     81  75  82 S7        29.95R
$$

OHZ009>014-019>023-028>033-038-089-250300-
   NORTHEAST OHIO

CITY           SKY/WX    TMP DP  RH WIND       PRES   REMARKS
CLE-HOPKINS    CLOUDY    79  70  74 S12       29.97F
CLE-LAKEFRONT  CLEAR     81  71  71 S15       29.94S
CUY CO. ARPT   PTCLDY    81  72  74 S10       29.96F
LORAIN-ELYRIA  CLOUDY    77  71  82 S7        29.96F
ASHTABULA      CLEAR     74  70  87 S6        29.98F
AKRON-CANTON   CLOUDY    76  73  91 SE7       30.00F
WOOSTER        PTCLDY    74  71  91 S5        30.00S
MANSFIELD      PTCLDY    77  72  84 SE7       30.00R
YOUNGSTOWN     MOCLDY    76  72  87 S6        30.00F
$$

OHZ042-051>053-060>062-070>072-077>081-250300-
  SOUTHWEST OHIO

CITY           SKY/WX    TMP DP  RH WIND       PRES   REMARKS
CINC-COVINGTON PTCLDY    84  75  74 SW5       29.98S HX  92
CINC-LUNKEN    CLEAR     82  76  81 S6        29.96R
HAMILTON       CLEAR     81  74  79 CALM      29.97R
DAYTON         PTCLDY    84  73  69 SW8       29.98R HX  90
WRIGHT-PAT AFB CLEAR     83  76  78 S1        29.96S HX  91
DAYTON GENERAL CLEAR     86  72  62 SW5       29.97R HX  92
WILMINGTON     CLEAR     80  76  87 CALM      29.99R
$$

OHZ036-037-039>041-045>050-054>059-063>069-073>076-082>088-250300-
  CENTRAL AND SOUTHEAST OHIO

CITY           SKY/WX    TMP DP  RH WIND       PRES   REMARKS
COLUMBUS       CLOUDY    81  72  74 E3        29.97S
OSU AIRPORT    CLEAR     83  73  72 SE6       29.97S
BOLTON FIELD   NOT AVBL
RICKENBACK AFB CLOUDY    79  74  85 CALM      29.97R
NEWARK         CLOUDY    76  74  93 CALM      29.98S
MARION         CLEAR     77  71  82 SE7       29.98R
LANCASTER      CLOUDY    76  74  93 CALM      29.99R
ZANESVILLE     CLOUDY    80  71  74 CALM      29.99S
NEW PHILLY     PTCLDY    78  72  81 CALM      29.99F
$$




USA.gov is the U.S. government's official web portal to all federal, state and local government web resources and services.